This is the latest recevied weather packets stored in our database for station/object DF7ER-12. If no packets are shown the sender has not sent any weather packets the latest 10 day(s).
| Time | Temp. | Humidity | Pressure | Rain* | Wind** | Luminosity | Snow |
|---|---|---|---|---|---|---|---|
| 1788254182 | 22.78° C | 83% | 1006.8 hPa | - | - | - | - |
| 1788253882 | 23.33° C | 85% | 1006.8 hPa | - | - | - | - |
| 1788253582 | 22.78° C | 85% | 1006.7 hPa | - | - | - | - |
| 1788253282 | 22.22° C | 85% | 1006.6 hPa | - | - | - | - |
| 1788252982 | 23.33° C | 84% | 1006.7 hPa | - | - | - | - |
| 1788252682 | 23.33° C | 85% | 1006.7 hPa | - | - | - | - |
| 1788252382 | 23.33° C | 85% | 1006.7 hPa | - | - | - | - |
| 1788252082 | 23.33° C | 84% | 1006.6 hPa | - | - | - | - |
| 1788251782 | 22.78° C | 86% | 1006.6 hPa | - | - | - | - |
| 1788251482 | 22.78° C | 87% | 1006.7 hPa | - | - | - | - |
| 1788251182 | 21.67° C | 87% | 1006.6 hPa | - | - | - | - |
| 1788250882 | 22.22° C | 87% | 1006.6 hPa | - | - | - | - |
| 1788250582 | 21.67° C | 89% | 1006.7 hPa | - | - | - | - |
| 1788250282 | 21.11° C | 90% | 1006.6 hPa | - | - | - | - |
| 1788249982 | 21.11° C | 92% | 1006.6 hPa | - | - | - | - |
| 1788249682 | 21.11° C | 94% | 1006.6 hPa | - | - | - | - |
| 1788249382 | 21.11° C | 91% | 1006.6 hPa | - | - | - | - |
| 1788249082 | 21.11° C | 91% | 1006.6 hPa | - | - | - | - |
| 1788248782 | 21.11° C | 93% | 1006.5 hPa | - | - | - | - |
| 1788248482 | 21.11° C | 90% | 1006.5 hPa | - | - | - | - |
| 1788248182 | 20.56° C | 91% | 1006.5 hPa | - | - | - | - |
| 1788247882 | 20.56° C | 94% | 1006.5 hPa | - | - | - | - |
| 1788247582 | 20.56° C | 93% | 1006.4 hPa | - | - | - | - |
| 1788247282 | 20.56° C | 94% | 1006.4 hPa | - | - | - | - |
| 1788246982 | 20.56° C | 91% | 1006.3 hPa | - | - | - | - |
* Rain since midnight (hover to see other rain measurements)
** Current wind speed in m/s (hover to see current wind gust speed)